sat.trackr.live / text

‹ back to catalog

O3B FM13

NORAD 43234 · 2018-024D

PAYLOAD ACTIVE UNKNOWN

§ Identity

Operator
Country
O3B
Launch date
2018-03-09
Launch site
FRGUI
Launch vehicle
Mass (kg)
RCS (m²)

Purposes: comms

External: N2YO · Heavens-Above · Gunter

§ Orbital elements

Epoch: 2026-05-19T01:37:37.958880Z

Period
287.93 min
Inclination
0.0490°
Eccentricity
0.0003182
Mean motion
5.00115546 rev/d
Perigee alt
8,061.3 km
Apogee alt
8,070.5 km
Semi-major
14,444.0 km
B*
0.0000e+0
RAAN
326.2733°
Arg perigee
43.4287°
Mean anomaly
350.3051°
Rev number
14,960

§ Raw data

O3B FM131 43234U 18024D   26139.06780045 -.00000019  00000+0  00000+0 0  99912 43234   0.0490 326.2733 0003182  43.4287 350.3051  5.00115546149603

JSON: /api/v1/satellites/43234 · /tle

For live sub-satellite position, see the globe view (requires WebGL).

§ Visibility from observer

Set your observer location to see the next 7 days of passes ≥ 10°. The values pass through the URL so the page stays shareable.

No JS? Fill the form by hand. The geolocation button needs JavaScript.